{"data":{"norad_id":53877,"epoch":"2026-05-25T03:23:00.631392Z","epoch_age_seconds":59488,"freshness":"FRESH","line1":"1 53877U 22115A   26145.14097953  .00000293  00000+0  12371-3 0  9997","line2":"2 53877  98.5534 143.5817 0005925 109.7201 250.4622 14.32700635192213","mean_motion":14.32700635,"eccentricity":0.0005925,"inclination_deg":98.5534,"raan_deg":143.5817,"arg_perigee_deg":109.7201,"mean_anomaly_deg":250.4622,"bstar":0.00012371,"rev_number":19221,"period_min":100.5094829179,"perigee_km":778.47507161837,"apogee_km":786.96068464896,"semimajor_km":7160.8548781337,"source":"CELESTRAK","updated_at":"2026-05-25T13:37:58.442390Z"}}